ABR41E EBBR-LEMD

Flight info

Callsign ABR41E
Flight time N/A
Altitude 33000
Route CIV N872 LESDO DCT KOVIN DCT DUCRA UM728 RESMI UN857 DISAK DCT ARKIP DCT ARNAV DCT LMG DCT UVELI DCT OSMOB DCT ARVID DCT PPN DCT NOLSA DCT ALEPO DCT VASUM DCT BANEV
Aircraft A306/H-SDE3FGHIRWY/LB1

Departure

Time N/A
Airport Brussels Airport (EBBR)

Arrival

Time 2026-05-03 20:15
Airport Adolfo Suárez Madrid–Barajas Airport (LEMD)
Time Latitude Longitude Altitude Speed Heading
2026-05-03 20:15 40.50354 -3.56043 1974 ft 29 kts 211°
2026-05-03 20:15 40.50231 -3.56128 1964 ft 13 kts 200°
2026-05-03 20:15 40.50203 -3.56138 1964 ft 0 kts 192°
2026-05-03 20:15 40.50201 -3.56139 1964 ft 3 kts 192°
2026-05-03 20:16 40.50154 -3.56146 1965 ft 9 kts 182°
2026-05-03 20:16 40.50095 -3.56146 1965 ft 9 kts 180°
2026-05-03 20:16 40.50029 -3.56147 1965 ft 9 kts 180°
2026-05-03 20:16 40.49947 -3.56146 1965 ft 15 kts 179°
2026-05-03 20:17 40.49839 -3.56144 1965 ft 16 kts 179°
2026-05-03 20:17 40.49733 -3.56143 1965 ft 14 kts 180°
2026-05-03 20:17 40.49629 -3.56143 1965 ft 17 kts 180°
2026-05-03 20:17 40.49487 -3.56141 1965 ft 23 kts 179°
2026-05-03 20:18 40.49327 -3.56140 1965 ft 22 kts 181°
2026-05-03 20:18 40.49189 -3.56141 1965 ft 21 kts 180°
2026-05-03 20:18 40.49046 -3.56140 1965 ft 21 kts 178°
2026-05-03 20:18 40.48911 -3.56140 1965 ft 19 kts 181°
2026-05-03 20:19 40.48788 -3.56159 1968 ft 14 kts 214°
2026-05-03 20:19 40.48756 -3.56240 1968 ft 8 kts 274°
2026-05-03 20:19 40.48768 -3.56378 1975 ft 21 kts 272°
2026-05-03 20:19 40.48768 -3.56554 1980 ft 17 kts 269°
2026-05-03 20:20 40.48766 -3.56705 1984 ft 18 kts 269°
2026-05-03 20:20 40.48767 -3.56886 1987 ft 20 kts 270°
2026-05-03 20:20 40.48766 -3.57036 1989 ft 17 kts 269°
2026-05-03 20:20 40.48765 -3.57175 1990 ft 14 kts 269°
2026-05-03 20:21 40.48764 -3.57302 1991 ft 15 kts 269°
2026-05-03 20:21 40.48763 -3.57448 1994 ft 16 kts 270°
2026-05-03 20:21 40.48763 -3.57609 1997 ft 19 kts 270°
2026-05-03 20:21 40.48762 -3.57778 1999 ft 20 kts 269°
2026-05-03 20:22 40.48739 -3.57913 2001 ft 15 kts 221°
2026-05-03 20:22 40.48627 -3.57922 2005 ft 18 kts 168°
2026-05-03 20:22 40.48493 -3.57847 1999 ft 25 kts 146°
2026-05-03 20:22 40.48340 -3.57719 2000 ft 27 kts 144°
2026-05-03 20:23 40.48204 -3.57584 2002 ft 22 kts 139°
2026-05-03 20:23 40.48092 -3.57465 2004 ft 20 kts 142°
2026-05-03 20:23 40.47981 -3.57351 2005 ft 21 kts 144°
2026-05-03 20:23 40.47858 -3.57232 2006 ft 23 kts 142°
2026-05-03 20:24 40.47724 -3.57094 2001 ft 25 kts 142°
2026-05-03 20:24 40.47586 -3.56956 1999 ft 25 kts 143°
2026-05-03 20:24 40.47449 -3.56817 1995 ft 25 kts 144°
2026-05-03 20:24 40.47315 -3.56680 1993 ft 24 kts 139°
2026-05-03 20:25 40.47182 -3.56543 1990 ft 23 kts 144°
2026-05-03 20:25 40.47035 -3.56456 1986 ft 23 kts 168°
2026-05-03 20:25 40.46877 -3.56459 1984 ft 22 kts 183°
2026-05-03 20:25 40.46701 -3.56472 1983 ft 28 kts 183°
2026-05-03 20:26 40.46529 -3.56484 1980 ft 19 kts 184°
2026-05-03 20:26 40.46408 -3.56496 1980 ft 17 kts 184°
2026-05-03 20:26 40.46291 -3.56501 1981 ft 18 kts 183°
2026-05-03 20:26 40.46161 -3.56510 1979 ft 17 kts 172°
2026-05-03 20:27 40.46114 -3.56399 1977 ft 20 kts 90°
2026-05-03 20:27 40.46114 -3.56241 1971 ft 13 kts 89°
2026-05-03 20:27 40.46115 -3.56154 1966 ft 0 kts 90°
2026-05-03 20:27 40.46114 -3.56148 1966 ft 2 kts 96°
2026-05-03 20:28 40.46105 -3.56123 1966 ft 4 kts 128°
2026-05-03 20:28 40.46066 -3.56121 1966 ft 6 kts 186°
2026-05-03 20:28 40.46038 -3.56122 1966 ft 3 kts 180°
2026-05-03 20:28 40.46031 -3.56122 1966 ft 2 kts 180°